N121JK -TJSJ

Flight info

Callsign N121JK
Flight time N/A
Altitude VFR
Route
Aircraft C172/L-DOV/C

Departure

Time N/A
Airport -

Arrival

Time 2026-05-07 01:21
Airport Luis Munoz Marin International Airport (TJSJ)
Time Latitude Longitude Altitude Speed Heading
2026-05-07 00:49 18.49530 -66.24720 1017 ft 115 kts 272°
2026-05-07 00:50 18.49611 -66.25561 1029 ft 116 kts 274°
2026-05-07 00:50 18.49689 -66.26413 1025 ft 118 kts 274°
2026-05-07 00:50 18.49765 -66.27267 1024 ft 116 kts 274°
2026-05-07 00:50 18.49834 -66.28112 1032 ft 116 kts 274°
2026-05-07 00:51 18.49905 -66.28962 1024 ft 118 kts 274°
2026-05-07 00:51 18.49583 -66.29671 1021 ft 107 kts 201°
2026-05-07 00:51 18.48911 -66.29842 1241 ft 99 kts 174°
2026-05-07 00:51 18.48288 -66.29587 1398 ft 96 kts 142°
2026-05-07 00:52 18.47928 -66.29035 1542 ft 89 kts 115°
2026-05-07 00:52 18.47665 -66.28463 1703 ft 85 kts 117°
2026-05-07 00:52 18.47407 -66.27913 1864 ft 83 kts 120°
2026-05-07 00:52 18.47143 -66.27369 2023 ft 85 kts 120°
2026-05-07 00:53 18.46851 -66.26786 2034 ft 93 kts 120°
2026-05-07 00:53 18.46544 -66.26179 2038 ft 96 kts 120°
2026-05-07 00:53 18.46220 -66.25540 2040 ft 103 kts 121°
2026-05-07 00:53 18.45877 -66.24859 2034 ft 106 kts 119°
2026-05-07 00:54 18.45530 -66.24173 2033 ft 107 kts 119°
2026-05-07 00:54 18.45181 -66.23486 2034 ft 106 kts 118°
2026-05-07 00:54 18.44837 -66.22811 2031 ft 104 kts 118°
2026-05-07 00:54 18.44499 -66.22139 2030 ft 104 kts 118°
2026-05-07 00:55 18.44164 -66.21460 2027 ft 105 kts 118°
2026-05-07 00:55 18.43832 -66.20785 2025 ft 103 kts 118°
2026-05-07 00:55 18.43508 -66.20119 2024 ft 102 kts 115°
2026-05-07 00:55 18.43403 -66.19397 2036 ft 102 kts 91°
2026-05-07 00:56 18.43436 -66.18648 2032 ft 104 kts 89°
2026-05-07 00:56 18.43470 -66.17884 2031 ft 104 kts 90°
2026-05-07 00:56 18.43480 -66.17127 2019 ft 103 kts 92°
2026-05-07 00:56 18.43455 -66.16377 2020 ft 102 kts 97°
2026-05-07 00:57 18.43407 -66.15633 2026 ft 101 kts 96°
2026-05-07 00:57 18.43375 -66.14892 2026 ft 102 kts 92°
2026-05-07 00:57 18.43397 -66.14145 2023 ft 101 kts 91°
2026-05-07 00:57 18.43396 -66.13401 2014 ft 101 kts 93°
2026-05-07 00:58 18.43393 -66.12702 2004 ft 89 kts 93°
2026-05-07 00:58 18.43400 -66.12061 1910 ft 87 kts 92°
2026-05-07 00:58 18.43397 -66.11429 1819 ft 85 kts 94°
2026-05-07 00:58 18.43389 -66.10807 1725 ft 85 kts 95°
2026-05-07 00:59 18.43356 -66.09566 1539 ft 86 kts 93°
2026-05-07 00:59 18.43371 -66.08923 1429 ft 90 kts 91°
2026-05-07 00:59 18.43369 -66.08268 1315 ft 89 kts 94°
2026-05-07 01:00 18.43356 -66.07607 1193 ft 92 kts 92°
2026-05-07 01:00 18.43371 -66.06922 1063 ft 94 kts 90°
2026-05-07 01:00 18.43386 -66.06232 932 ft 94 kts 93°
2026-05-07 01:00 18.43379 -66.05529 797 ft 98 kts 95°
2026-05-07 01:01 18.43367 -66.04830 719 ft 94 kts 93°
2026-05-07 01:01 18.43362 -66.04141 587 ft 94 kts 93°
2026-05-07 01:01 18.43352 -66.03477 434 ft 89 kts 91°
2026-05-07 01:01 18.43356 -66.02839 337 ft 87 kts 89°
2026-05-07 01:02 18.43363 -66.02198 276 ft 87 kts 90°
2026-05-07 01:02 18.43369 -66.01563 434 ft 88 kts 91°
2026-05-07 01:02 18.43531 -66.00958 621 ft 89 kts 50°
2026-05-07 01:02 18.44101 -66.00685 778 ft 96 kts
2026-05-07 01:03 18.44744 -66.00851 986 ft 97 kts 329°
2026-05-07 01:03 18.45291 -66.01275 1146 ft 99 kts 323°
2026-05-07 01:03 18.45810 -66.01708 1377 ft 91 kts 323°
2026-05-07 01:03 18.46297 -66.02116 1545 ft 89 kts 323°
2026-05-07 01:04 18.46778 -66.02524 1709 ft 89 kts 323°
2026-05-07 01:04 18.47264 -66.02939 1850 ft 92 kts 324°
2026-05-07 01:04 18.47769 -66.03368 1979 ft 95 kts 324°
2026-05-07 01:04 18.48294 -66.03813 2114 ft 99 kts 325°
2026-05-07 01:05 18.48844 -66.04284 2225 ft 104 kts 324°
2026-05-07 01:05 18.49415 -66.04778 2356 ft 108 kts 323°
2026-05-07 01:05 18.50007 -66.05275 2484 ft 110 kts 323°
2026-05-07 01:05 18.50636 -66.05808 2497 ft 119 kts 324°
2026-05-07 01:06 18.51171 -66.06436 2480 ft 117 kts 284°
2026-05-07 01:06 18.51281 -66.07268 2494 ft 115 kts 277°
2026-05-07 01:06 18.51370 -66.08090 2492 ft 113 kts 275°
2026-05-07 01:06 18.51459 -66.08922 2511 ft 117 kts 276°
2026-05-07 01:07 18.51580 -66.09755 2517 ft 111 kts 277°
2026-05-07 01:07 18.51718 -66.10533 2587 ft 107 kts 276°
2026-05-07 01:07 18.51796 -66.11333 2596 ft 111 kts 265°
2026-05-07 01:07 18.51769 -66.12164 2603 ft 115 kts 264°
2026-05-07 01:08 18.51750 -66.13006 2595 ft 114 kts 265°
2026-05-07 01:08 18.51725 -66.13839 2596 ft 113 kts 265°
2026-05-07 01:08 18.51696 -66.14679 2598 ft 117 kts 264°
2026-05-07 01:08 18.51659 -66.15537 2593 ft 117 kts 265°
2026-05-07 01:09 18.51625 -66.16389 2591 ft 117 kts 265°
2026-05-07 01:09 18.51580 -66.17238 2580 ft 114 kts 249°
2026-05-07 01:09 18.51323 -66.18017 2516 ft 117 kts 244°
2026-05-07 01:09 18.51060 -66.18848 2480 ft 119 kts 244°
2026-05-07 01:10 18.50679 -66.19577 2461 ft 107 kts 201°
2026-05-07 01:10 18.50041 -66.19514 2474 ft 91 kts 156°
2026-05-07 01:10 18.49439 -66.19329 2484 ft 90 kts 162°
2026-05-07 01:10 18.48810 -66.19221 2481 ft 93 kts 168°
2026-05-07 01:11 18.48161 -66.19148 2489 ft 95 kts 169°
2026-05-07 01:11 18.47493 -66.19064 2494 ft 98 kts 170°
2026-05-07 01:11 18.46814 -66.19017 2444 ft 97 kts 172°
2026-05-07 01:11 18.46132 -66.19118 2374 ft 100 kts 182°
2026-05-07 01:12 18.45450 -66.19282 2291 ft 102 kts 190°
2026-05-07 01:12 18.44759 -66.19464 2196 ft 102 kts 189°
2026-05-07 01:12 18.44083 -66.19661 2134 ft 99 kts 186°
2026-05-07 01:12 18.43398 -66.19799 2037 ft 101 kts 187°
2026-05-07 01:13 18.42716 -66.19971 2005 ft 101 kts 185°
2026-05-07 01:13 18.42042 -66.20130 2012 ft 98 kts 182°
2026-05-07 01:13 18.41366 -66.20229 1954 ft 99 kts 176°
2026-05-07 01:13 18.40764 -66.20024 2012 ft 88 kts 136°
2026-05-07 01:14 18.40470 -66.19448 2053 ft 92 kts 115°
2026-05-07 01:14 18.40224 -66.18814 2034 ft 94 kts 115°
2026-05-07 01:14 18.39984 -66.18184 2050 ft 93 kts 114°
2026-05-07 01:14 18.39794 -66.17532 2043 ft 94 kts 110°
2026-05-07 01:15 18.39638 -66.16866 2057 ft 93 kts 108°
2026-05-07 01:15 18.39497 -66.16200 2018 ft 94 kts 107°
2026-05-07 01:15 18.39544 -66.15516 2018 ft 96 kts 77°
2026-05-07 01:15 18.39845 -66.14879 1999 ft 98 kts 73°
2026-05-07 01:16 18.40105 -66.14222 1981 ft 99 kts 75°
2026-05-07 01:16 18.40330 -66.13552 1984 ft 95 kts 79°
2026-05-07 01:16 18.40537 -66.12893 1985 ft 95 kts 79°
2026-05-07 01:16 18.40791 -66.12245 2000 ft 96 kts 76°
2026-05-07 01:17 18.41075 -66.11608 1952 ft 94 kts 73°
2026-05-07 01:17 18.41314 -66.10972 1818 ft 94 kts 81°
2026-05-07 01:17 18.41449 -66.10281 1648 ft 97 kts 82°
2026-05-07 01:17 18.41567 -66.09616 1644 ft 87 kts 84°
2026-05-07 01:18 18.41652 -66.09013 1649 ft 76 kts 96°
2026-05-07 01:18 18.41715 -66.08465 1597 ft 80 kts 82°
2026-05-07 01:18 18.41880 -66.07891 1443 ft 84 kts 82°
2026-05-07 01:18 18.41996 -66.07265 1273 ft 89 kts 81°
2026-05-07 01:19 18.42109 -66.06846 1198 ft 90 kts 81°
2026-05-07 01:19 18.42326 -66.06207 1093 ft 96 kts 73°
2026-05-07 01:19 18.42549 -66.05527 949 ft 98 kts 78°
2026-05-07 01:19 18.42757 -66.04867 781 ft 93 kts 78°
2026-05-07 01:20 18.42926 -66.04234 594 ft 85 kts 80°
2026-05-07 01:20 18.43070 -66.03649 499 ft 79 kts 79°
2026-05-07 01:20 18.43243 -66.03067 355 ft 84 kts 69°
2026-05-07 01:20 18.43490 -66.02493 258 ft 87 kts 72°
2026-05-07 01:21 18.43689 -66.01940 217 ft 66 kts 69°
2026-05-07 01:21 18.43851 -66.01572 36 ft 53 kts 70°
2026-05-07 01:21 18.43922 -66.01397 12 ft 48 kts 72°